WB8ZTP Weather Reports


Display with metric or nautical units.
time (UTC)temp
F
wind
direction
speed
MPH
gust
MPH
rain 1hr
in
rain 24hr
in
rain mn
in
humidity
%
barometer
mb
20260507044538 40 337 0.0 0.0 0.00 0.00 0.00 90 1016.7
20260507043036 41 337 0.0 0.0 0.00 0.00 0.00 89 1016.6
20260507041534 41 337 0.0 0.0 0.00 0.00 0.00 89 1016.6
20260507040032 42 337 0.0 0.0 0.00 0.00 0.00 89 1016.6
20260507034528 43 338 0.0 0.0 0.00 0.00 0.00 88 1016.6
20260507033029 43 337 0.0 0.0 0.00 0.00 0.00 87 1016.8
20260507031524 44 337 0.0 0.0 0.00 0.00 0.00 85 1016.8
20260507030022 45 337 0.0 0.0 0.00 0.00 0.00 84 1016.8
20260507024521 46 337 0.0 0.0 0.00 0.00 0.00 82 1016.8
20260507023019 47 337 0.0 0.0 0.00 0.00 0.00 82 1016.6
20260507021517 47 338 0.0 0.0 0.00 0.00 0.00 83 1016.4
20260507020017 47 338 0.0 0.0 0.00 0.00 0.00 84 1016.3
20260507014526 47 338 0.0 0.0 0.00 0.00 0.00 85 1016.2
20260507013035 46 338 0.0 0.0 0.00 0.00 0.00 83 1016.3
20260507011517 46 338 0.0 0.0 0.00 0.00 0.00 79 1016.1
20260507010022 47 338 0.0 0.0 0.00 0.00 0.00 77 1015.7
20260507004510 49 338 0.0 2.0 0.00 0.00 0.00 73 1015.5
20260507003010 51 360 0.0 3.0 0.00 0.00 0.00 68 1015.3
20260507001510 52 9 0.0 6.0 0.00 0.00 0.00 62 1015.3
20260507000010 52 360 3.0 7.0 0.00 0.00 0.00 61 1015.0
20260506234512 52 355 1.0 6.0 0.00 0.00 0.00 60 1015.1
20260506233009 53 5 0.0 6.0 0.00 0.00 0.00 60 1015.1
20260506231508 53 355 1.0 7.0 0.00 0.00 0.00 59 1015.4
20260506230009 53 171 0.0 3.0 0.00 0.00 0.00 63 1015.3
20260506224507 53 165 0.0 7.0 0.00 0.00 0.00 61 1015.6
20260506223005 54 49 0.0 6.0 0.00 0.00 0.00 59 1015.6
20260506221503 54 26 1.0 8.0 0.00 0.00 0.00 60 1015.1
20260506220002 54 347 2.0 8.0 0.00 0.00 0.00 60 1014.8
20260506214600 55 231 2.0 7.0 0.00 0.00 0.00 60 1014.7
20260506213122 55 9 4.0 8.0 0.00 0.00 0.00 60 1014.5
20260506211558 55 337 2.0 8.0 0.00 0.00 0.00 61 1014.3
20260506210057 55 9 2.0 9.0 0.00 0.00 0.00 60 1014.2
20260506204556 56 272 1.0 12.0 0.00 0.00 0.00 59 1014.2
20260506203055 57 228 2.0 8.0 0.00 0.00 0.00 61 1014.0
20260506201555 57 313 4.0 10.0 0.00 0.00 0.00 58 1014.0
20260506200055 57 19 4.0 12.0 0.00 0.00 0.00 59 1013.9
20260506194554 58 20 2.0 10.0 0.00 0.00 0.00 57 1013.8
20260506193053 58 285 3.0 10.0 0.00 0.00 0.00 57 1013.6
20260506191553 58 284 3.0 11.0 0.00 0.00 0.00 56 1013.8
20260506190053 58 333 1.0 9.0 0.00 0.00 0.00 59 1013.7
20260506184552 57 13 4.0 11.0 0.00 0.00 0.00 59 1013.9
20260506183056 57 350 6.0 12.0 0.00 0.00 0.00 58 1014.0
20260506181615 56 348 1.0 7.0 0.00 0.00 0.00 62 1013.9
20260506180049 56 330 4.0 12.0 0.00 0.00 0.00 62 1014.0
20260506174547 56 9 2.0 9.0 0.00 0.00 0.00 58 1014.0
20260506173057 56 5 1.0 10.0 0.00 0.00 0.00 63 1014.0
20260506171546 55 5 3.0 11.0 0.00 0.00 0.00 64 1013.9
20260506170048 55 49 3.0 7.0 0.00 0.00 0.00 66 1013.7
20260506164546 55 360 4.0 11.0 0.00 0.00 0.00 70 1014.2
20260506163043 54 24 2.0 10.0 0.00 0.00 0.00 67 1013.8
20260506161540 54 311 2.0 9.0 0.00 0.00 0.00 70 1013.8
20260506160044 53 331 2.0 8.0 0.00 0.00 0.00 78 1013.7
20260506154536 52 341 2.0 8.0 0.00 0.00 0.00 78 1013.5
20260506153041 51 21 3.0 8.0 0.00 0.00 0.00 80 1013.4
20260506151534 50 27 2.0 6.0 0.00 0.00 0.00 83 1013.2
20260506150033 50 17 2.0 7.0 0.00 0.00 0.00 86 1013.3
20260506144528 49 16 2.0 8.0 0.00 0.00 0.00 87 1013.0
20260506143031 48 15 4.0 8.0 0.00 0.00 0.00 88 1012.6
20260506141525 47 19 3.0 8.0 0.00 0.00 0.00 89 1012.6
20260506140025 47 355 3.0 10.0 0.00 0.00 0.00 90 1012.4
20260506134521 47 17 2.0 6.0 0.00 0.00 0.00 90 1012.2
20260506133020 46 350 2.0 6.0 0.00 0.00 0.00 90 1012.0
20260506131529 46 343 1.0 5.0 0.00 0.00 0.00 89 1012.0
20260506130021 46 15 4.0 9.0 0.00 0.00 0.00 89 1012.0
20260506124515 46 22 1.0 7.0 0.00 0.00 0.00 88 1011.0
20260506123015 45 21 3.0 7.0 0.00 0.00 0.00 88 1011.2
20260506121514 45 13 2.0 9.0 0.00 0.00 0.00 88 1010.9
20260506120019 45 350 2.0 6.0 0.00 0.00 0.00 89 1010.9
20260506114519 45 19 2.0 6.0 0.00 0.00 0.00 89 1010.7
20260506113023 45 355 2.0 9.0 0.00 0.00 0.00 89 1010.4
20260506111507 45 15 2.0 7.0 0.00 0.00 0.00 89 1009.7
20260506110011 45 9 3.0 11.0 0.00 0.00 0.00 89 1010.0
20260506104504 45 342 2.0 9.0 0.00 0.00 0.00 89 1010.1
20260506103001 45 17 4.0 10.0 0.00 0.00 0.00 89 1009.3
20260506101558 45 23 1.0 7.0 0.00 0.00 0.00 89 1008.8
20260506100057 45 23 2.0 9.0 0.00 0.00 0.00 89 1008.4
20260506094555 45 22 2.0 9.0 0.00 0.00 0.00 89 1008.9
20260506093053 45 18 4.0 14.0 0.00 0.00 0.00 89 1009.0
20260506091555 46 10 6.0 12.0 0.00 0.00 0.00 89 1008.4
20260506090053 47 24 4.0 8.0 0.00 0.00 0.00 88 1008.8
20260506084547 47 355 4.0 11.0 0.00 0.00 0.00 89 1008.6
20260506083041 48 31 3.0 10.0 0.00 0.00 0.00 88 1008.4
20260506081539 48 16 4.0 11.0 0.00 0.00 0.00 88 1008.3
20260506073031 49 335 3.0 7.0 0.00 0.00 0.00 88 1007.6
20260506071529 50 342 3.0 9.0 0.00 0.00 0.00 88 1007.6
20260506061520 52 11 0.0 0.0 0.00 0.00 0.00 88 1007.5